• In Romania
  • List of Countries
  • For 7 days
  • Water Temperature
  • Satellite Maps
  • Weather Map
  • Weather Widgets
  • user-avatar
    Login

    Hourly Weather Antwerp

    Today, 19 September, Wednesday

    Time Temperature Precipitation Wind Pressure Humidity
    00:00 +17°C° 0 mm 2 mps 761 mmHg 86%
    01:00 +17°C° 0 mm 2 mps 761 mmHg 87%
    02:00 +16°C° 0 mm 3 mps 761 mmHg 88%
    03:00 +16°C° 0 mm 3 mps 761 mmHg 89%
    04:00 +16°C° 0 mm 3 mps 761 mmHg 89%
    05:00 +16°C° 0 mm 3 mps 761 mmHg 89%
    06:00 +17°C° 0 mm 4 mps 761 mmHg 89%
    07:00 +18°C° 0 mm 4 mps 761 mmHg 82%
    08:00 +20°C° 0 mm 5 mps 761 mmHg 75%
    09:00 +22°C° 0 mm 6 mps 761 mmHg 69%
    10:00 +22°C° 0 mm 6 mps 761 mmHg 64%
    11:00 +23°C° 0 mm 7 mps 761 mmHg 59%
    12:00 +24°C° 0 mm 7 mps 761 mmHg 55%
    13:00 +24°C° 0 mm 7 mps 761 mmHg 55%
    14:00 +24°C° 0 mm 7 mps 761 mmHg 55%
    15:00 +24°C° 0 mm 6 mps 761 mmHg 55%
    16:00 +23°C° 0 mm 6 mps 761 mmHg 60%
    17:00 +22°C° 0 mm 5 mps 761 mmHg 64%
    18:00 +21°C° 0 mm 4 mps 761 mmHg 69%
    19:00 +20°C° 0 mm 4 mps 762 mmHg 71%
    20:00 +20°C° 0 mm 4 mps 762 mmHg 74%
    21:00 +19°C° 0 mm 4 mps 762 mmHg 77%
    22:00 +19°C° 0 mm 4 mps 762 mmHg 79%
    23:00 +18°C° 0 mm 4 mps 762 mmHg 81%

    Tomorrow, 20 September, Thursday

    Time Temperature Precipitation Wind Pressure Humidity
    00:00 +18°C° 0 mm 4 mps 762 mmHg 83%
    01:00 +17°C° 0 mm 4 mps 762 mmHg 86%
    02:00 +17°C° 0 mm 4 mps 762 mmHg 88%
    03:00 +15°C° 0 mm 4 mps 762 mmHg 91%
    04:00 +15°C° 0 mm 4 mps 762 mmHg 91%
    05:00 +15°C° 0 mm 4 mps 762 mmHg 91%
    06:00 +15°C° 0 mm 4 mps 762 mmHg 92%
    07:00 +17°C° 0 mm 5 mps 762 mmHg 85%
    08:00 +19°C° 0 mm 5 mps 762 mmHg 78%
    09:00 +21°C° 0 mm 6 mps 762 mmHg 71%
    10:00 +22°C° 0 mm 6 mps 761 mmHg 66%
    11:00 +23°C° 0 mm 6 mps 761 mmHg 62%
    12:00 +24°C° 0 mm 7 mps 761 mmHg 57%
    13:00 +26°C° 0 mm 6 mps 760 mmHg 56%
    14:00 +26°C° 0 mm 6 mps 760 mmHg 56%
    15:00 +26°C° 0 mm 6 mps 759 mmHg 55%
    16:00 +25°C° 0 mm 5 mps 759 mmHg 60%
    17:00 +22°C° 0 mm 4 mps 758 mmHg 64%
    18:00 +21°C° 0 mm 3 mps 758 mmHg 69%
    19:00 +21°C° 0 mm 4 mps 757 mmHg 66%
    20:00 +21°C° 0 mm 5 mps 757 mmHg 64%
    21:00 +21°C° 0 mm 5 mps 756 mmHg 61%
    22:00 +21°C° 0 mm 6 mps 756 mmHg 59%
    23:00 +22°C° 0 mm 6 mps 755 mmHg 56%

    Day after tomorrow, 21 September, Friday

    Time Temperature Precipitation Wind Pressure Humidity
    00:00 +22°C° 0 mm 7 mps 754 mmHg 53%
    01:00 +22°C° 0 mm 7 mps 754 mmHg 55%
    02:00 +21°C° 0 mm 8 mps 753 mmHg 56%
    03:00 +21°C° 0 mm 8 mps 752 mmHg 58%
    04:00 +19°C° 0.7 mm 9 mps 752 mmHg 65%
    05:00 +19°C° 0.7 mm 9 mps 752 mmHg 71%
    06:00 +18°C° 0.7 mm 10 mps 752 mmHg 78%
    07:00 +17°C° 0.4 mm 9 mps 753 mmHg 74%
    08:00 +16°C° 0.4 mm 8 mps 754 mmHg 69%
    09:00 +15°C° 0.4 mm 8 mps 755 mmHg 65%
    10:00 +16°C° 0 mm 8 mps 756 mmHg 58%
    11:00 +16°C° 0 mm 8 mps 757 mmHg 51%
    12:00 +17°C° 0 mm 8 mps 758 mmHg 44%
    13:00 +17°C° 0 mm 9 mps 758 mmHg 45%
    14:00 +17°C° 0 mm 9 mps 758 mmHg 45%
    15:00 +17°C° 0 mm 9 mps 758 mmHg 45%
    16:00 +16°C° 0.1 mm 8 mps 759 mmHg 48%
    17:00 +15°C° 0.1 mm 7 mps 760 mmHg 51%
    18:00 +14°C° 0.1 mm 6 mps 760 mmHg 55%
    19:00 +14°C° 0.1 mm 6 mps 761 mmHg 57%
    20:00 +13°C° 0.1 mm 6 mps 761 mmHg 60%
    21:00 +13°C° 0.1 mm 6 mps 762 mmHg 62%
    22:00 +13°C° 0 mm 6 mps 763 mmHg 64%
    23:00 +12°C° 0 mm 5 mps 763 mmHg 65%

    22 September, Saturday

    Time Temperature Precipitation Wind Pressure Humidity
    00:00 +12°C° 0 mm 5 mps 763 mmHg 67%
    01:00 +12°C° 0 mm 5 mps 764 mmHg 69%
    02:00 +10°C° 0 mm 5 mps 764 mmHg 71%
    03:00 +10°C° 0 mm 5 mps 764 mmHg 73%
    04:00 +10°C° 0 mm 5 mps 765 mmHg 74%
    05:00 +10°C° 0 mm 4 mps 765 mmHg 76%
    06:00 +10°C° 0 mm 4 mps 765 mmHg 78%
    07:00 +12°C° 0.2 mm 5 mps 765 mmHg 72%
    08:00 +13°C° 0.2 mm 5 mps 766 mmHg 66%
    09:00 +15°C° 0.2 mm 6 mps 766 mmHg 61%
    10:00 +15°C° 0.2 mm 6 mps 766 mmHg 59%
    11:00 +16°C° 0.2 mm 6 mps 766 mmHg 57%
    12:00 +16°C° 0.2 mm 6 mps 766 mmHg 55%
    13:00 +16°C° 0 mm 6 mps 766 mmHg 53%
    14:00 +16°C° 0 mm 5 mps 766 mmHg 51%
    15:00 +16°C° 0 mm 5 mps 766 mmHg 49%
    16:00 +15°C° 0 mm 4 mps 767 mmHg 53%
    17:00 +14°C° 0 mm 3 mps 767 mmHg 57%
    18:00 +13°C° 0 mm 2 mps 767 mmHg 61%
    19:00 +13°C° 0 mm 2 mps 767 mmHg 63%
    20:00 +13°C° 0 mm 2 mps 767 mmHg 64%
    21:00 +12°C° 0 mm 2 mps 767 mmHg 65%
    22:00 +12°C° 0 mm 2 mps 766 mmHg 65%
    23:00 +12°C° 0 mm 3 mps 766 mmHg 64%

    23 September, Sunday

    Time Temperature Precipitation Wind Pressure Humidity
    00:00 +12°C° 0 mm 3 mps 766 mmHg 64%
    01:00 +11°C° 0.4 mm 3 mps 765 mmHg 69%
    02:00 +11°C° 0.4 mm 4 mps 764 mmHg 74%
    03:00 +11°C° 0.4 mm 4 mps 763 mmHg 79%
    04:00 +10°C° 0.5 mm 5 mps 762 mmHg 80%
    05:00 +10°C° 0.5 mm 6 mps 761 mmHg 81%
    06:00 +10°C° 0.5 mm 7 mps 760 mmHg 82%
    07:00 +11°C° 0.5 mm 8 mps 758 mmHg 79%
    08:00 +12°C° 0.5 mm 8 mps 756 mmHg 75%
    09:00 +12°C° 0.5 mm 9 mps 754 mmHg 72%
    10:00 +14°C° 1.4 mm 10 mps 753 mmHg 71%
    11:00 +17°C° 1.4 mm 10 mps 751 mmHg 71%
    12:00 +18°C° 1.4 mm 11 mps 749 mmHg 70%
    13:00 +19°C° 0.5 mm 11 mps 748 mmHg 71%
    14:00 +21°C° 0.5 mm 12 mps 746 mmHg 71%
    15:00 +20°C° 0.5 mm 13 mps 744 mmHg 72%
    16:00 +19°C° 0.4 mm 14 mps 743 mmHg 70%
    17:00 +17°C° 0.4 mm 14 mps 743 mmHg 69%
    18:00 +14°C° 0.4 mm 15 mps 742 mmHg 67%
    19:00 +13°C° 0.4 mm 14 mps 742 mmHg 70%
    20:00 +13°C° 0.4 mm 14 mps 742 mmHg 73%
    21:00 +13°C° 0.4 mm 13 mps 741 mmHg 76%
    22:00 +13°C° 0.4 mm 14 mps 744 mmHg 76%
    23:00 +14°C° 0.4 mm 15 mps 746 mmHg 75%

    24 September, Monday

    Time Temperature Precipitation Wind Pressure Humidity
    00:00 +14°C° 0.4 mm 16 mps 748 mmHg 75%
    01:00 +13°C° 0.1 mm 15 mps 752 mmHg 71%
    02:00 +13°C° 0.1 mm 13 mps 755 mmHg 68%
    03:00 +12°C° 0.1 mm 12 mps 759 mmHg 64%
    04:00 +12°C° 0.1 mm 11 mps 761 mmHg 64%
    05:00 +12°C° 0.1 mm 10 mps 763 mmHg 63%
    06:00 +12°C° 0.1 mm 9 mps 765 mmHg 63%
    07:00 +12°C° 0.1 mm 9 mps 766 mmHg 61%
    08:00 +13°C° 0.1 mm 9 mps 768 mmHg 58%
    09:00 +13°C° 0.1 mm 9 mps 769 mmHg 56%
    10:00 +13°C° 0.1 mm 9 mps 770 mmHg 56%
    11:00 +13°C° 0.1 mm 8 mps 771 mmHg 56%
    12:00 +13°C° 0.1 mm 8 mps 772 mmHg 57%
    13:00 +13°C° 0.1 mm 8 mps 772 mmHg 56%
    14:00 +13°C° 0.1 mm 8 mps 773 mmHg 55%
    15:00 +13°C° 0.1 mm 8 mps 773 mmHg 54%
    16:00 +13°C° 0 mm 6 mps 774 mmHg 56%
    17:00 +13°C° 0 mm 5 mps 774 mmHg 58%
    18:00 +12°C° 0 mm 4 mps 774 mmHg 60%
    19:00 +12°C° 0 mm 3 mps 775 mmHg 62%
    20:00 +11°C° 0 mm 3 mps 775 mmHg 64%
    21:00 +12°C° 0 mm 2 mps 776 mmHg 65%
    22:00 +12°C° 0 mm 2 mps 776 mmHg 67%
    23:00 +10°C° 0 mm 2 mps 776 mmHg 68%
    Show more